ProjectID,Date,Electric Generation,Electric Utility Import,Facility Electric Load
,YYYY-MM-DD,kW,kW,kW
207,2014-11-01,0.0,,0.0
207,2014-11-02,0.0,,0.0
207,2014-11-03,0.0,,0.0
207,2014-11-04,0.0,,0.0
207,2014-11-05,0.0,,0.0
207,2014-11-06,0.0,,0.0
207,2014-11-07,0.0,,0.0
207,2014-11-08,0.0,,0.0
207,2014-11-09,0.0,,0.0
207,2014-11-10,0.0,,0.0
207,2014-11-11,0.0,,0.0
207,2014-11-12,0.0,,0.0
207,2014-11-13,0.0,,0.0
207,2014-11-14,0.0,,0.0
207,2014-11-15,0.0,,0.0
207,2014-11-16,0.0,,0.0
207,2014-11-17,0.0,,0.0
207,2014-11-18,0.0,,0.0
207,2014-11-19,0.0,,0.0
207,2014-11-20,0.0,,0.0
207,2014-11-21,0.0,,0.0
207,2014-11-22,0.0,,0.0
207,2014-11-23,0.0,,0.0
207,2014-11-24,0.0,,0.0
207,2014-11-25,18.575,,18.575
207,2014-11-26,7.945833333333333,,7.945833333333333
207,2014-11-27,1.3499999999999999,,1.3499999999999999
207,2014-11-28,4.433333333333334,,4.433333333333334
207,2014-11-29,7.845833333333334,,7.845833333333334
207,2014-11-30,31.858333333333334,,31.858333333333334
207,2014-12-01,33.97083333333333,,33.97083333333333
207,2014-12-02,88.32083333333333,,88.32083333333333
207,2014-12-03,13.991666666666667,,13.991666666666667
207,2014-12-04,76.67083333333333,,76.67083333333333
207,2014-12-05,40.18333333333333,,40.18333333333333
207,2014-12-06,7.5249999999999995,,7.5249999999999995
207,2014-12-07,117.1125,,117.1125
207,2014-12-08,56.99583333333334,,56.99583333333334
207,2014-12-09,123.64583333333333,,123.64583333333333
207,2014-12-10,-0.5375,,-0.5375
207,2014-12-11,-0.075,,-0.075
207,2014-12-12,1.4166666666666667,,1.4166666666666667
207,2014-12-13,3.5749999999999997,,3.5749999999999997
207,2014-12-14,21.808333333333334,,21.808333333333334
207,2014-12-15,18.129166666666666,,18.129166666666666
207,2014-12-16,16.787499999999998,,16.787499999999998
207,2014-12-17,20.570833333333333,,20.570833333333333
207,2014-12-18,9.862499999999999,,9.862499999999999
207,2014-12-19,12.383333333333333,,12.383333333333333
207,2014-12-20,44.05833333333334,,44.05833333333334
207,2014-12-21,114.85833333333333,,114.85833333333333
207,2014-12-22,108.93333333333334,,108.93333333333334
207,2014-12-23,42.68333333333334,,42.68333333333334
207,2014-12-24,34.675000000000004,,34.675000000000004
207,2014-12-25,30.537499999999998,,30.537499999999998
207,2014-12-26,95.29583333333333,,95.29583333333333
207,2014-12-27,77.90416666666667,,77.90416666666667
207,2014-12-28,29.4875,,29.4875
207,2014-12-29,30.09583333333333,,30.09583333333333
207,2014-12-30,1.6833333333333333,,1.6833333333333333
207,2014-12-31,11.9375,,11.9375
207,2015-01-01,42.175000000000004,,42.175000000000004
207,2015-01-02,39.27916666666667,,39.27916666666667
207,2015-01-03,14.391666666666666,,14.391666666666666
207,2015-01-04,24.15833333333333,,24.15833333333333
207,2015-01-05,111.04583333333333,,111.04583333333333
207,2015-01-06,70.49166666666666,,70.49166666666666
207,2015-01-07,65.8875,,65.8875
207,2015-01-08,94.175,,94.175
207,2015-01-09,146.44166666666666,,146.44166666666666
207,2015-01-10,101.87083333333334,,101.87083333333334
207,2015-01-11,68.52083333333333,,68.52083333333333
207,2015-01-12,2.7541666666666664,,2.7541666666666664
207,2015-01-13,2.858333333333333,,2.858333333333333
207,2015-01-14,16.554166666666667,,16.554166666666667
207,2015-01-15,23.933333333333334,,23.933333333333334
207,2015-01-16,46.57083333333333,,46.57083333333333
207,2015-01-17,63.479166666666664,,63.479166666666664
207,2015-01-18,36.99583333333333,,36.99583333333333
207,2015-01-19,47.23333333333333,,47.23333333333333
207,2015-01-20,86.11666666666667,,86.11666666666667
207,2015-01-21,111.85416666666667,,111.85416666666667
207,2015-01-22,161.35,,161.35
207,2015-01-23,105.21249999999999,,105.21249999999999
207,2015-01-24,29.0,,29.0
207,2015-01-25,104.675,,104.675
207,2015-01-26,35.833333333333336,,35.833333333333336
207,2015-01-27,5.533333333333334,,5.533333333333334
207,2015-01-28,59.425000000000004,,59.425000000000004
207,2015-01-29,16.379166666666666,,16.379166666666666
207,2015-01-30,1.1166666666666667,,1.1166666666666667
207,2015-01-31,5.1625000000000005,,5.1625000000000005
207,2015-02-01,0.9166666666666666,,0.9166666666666666
207,2015-02-02,0.10833333333333334,,0.10833333333333334
207,2015-02-03,4.058333333333334,,4.058333333333334
207,2015-02-04,0.35000000000000003,,0.35000000000000003
207,2015-02-05,1.6416666666666666,,1.6416666666666666
207,2015-02-06,14.3125,,14.3125
207,2015-02-07,0.7125,,0.7125
207,2015-02-08,-0.31666666666666665,,-0.31666666666666665
207,2015-02-09,-0.09583333333333333,,-0.09583333333333333
207,2015-02-10,-0.08750000000000001,,-0.08750000000000001
207,2015-02-11,9.658333333333333,,9.658333333333333
207,2015-02-12,14.783333333333333,,14.783333333333333
207,2015-02-13,5.420833333333333,,5.420833333333333
207,2015-02-14,1.4333333333333333,,1.4333333333333333
207,2015-02-15,9.733333333333333,,9.733333333333333
207,2015-02-16,23.620833333333334,,23.620833333333334
207,2015-02-17,55.57916666666667,,55.57916666666667
207,2015-02-18,46.9375,,46.9375
207,2015-02-19,17.462500000000002,,17.462500000000002
207,2015-02-20,76.03750000000001,,76.03750000000001
207,2015-02-21,5.429166666666667,,5.429166666666667
207,2015-02-22,47.87916666666666,,47.87916666666666
207,2015-02-23,34.9625,,34.9625
207,2015-02-24,85.59583333333335,,85.59583333333335
207,2015-02-25,134.95833333333334,,134.95833333333334
207,2015-02-26,78.50833333333334,,78.50833333333334
207,2015-02-27,126.96249999999999,,126.96249999999999
207,2015-02-28,204.60416666666666,,204.60416666666666
207,2015-03-01,62.699999999999996,,62.699999999999996
207,2015-03-02,108.74166666666667,,108.74166666666667
207,2015-03-03,48.6875,,48.6875
207,2015-03-04,81.25833333333334,,81.25833333333334
207,2015-03-05,25.8625,,25.8625
207,2015-03-06,191.32500000000002,,191.32500000000002
207,2015-03-07,117.90416666666665,,117.90416666666665
207,2015-03-08,140.36666666666667,,140.36666666666667
207,2015-03-09,246.5041666666667,,246.5041666666667
207,2015-03-10,114.62083333333334,,114.62083333333334
207,2015-03-11,224.14583333333334,,224.14583333333334
207,2015-03-12,256.1875,,256.1875
207,2015-03-13,217.86666666666667,,217.86666666666667
207,2015-03-14,45.354166666666664,,45.354166666666664
207,2015-03-15,65.35000000000001,,65.35000000000001
207,2015-03-16,148.70000000000002,,148.70000000000002
207,2015-03-17,159.69583333333333,,159.69583333333333
207,2015-03-18,175.38750000000002,,175.38750000000002
207,2015-03-19,257.90833333333336,,257.90833333333336
207,2015-03-20,79.94166666666666,,79.94166666666666
207,2015-03-21,76.54166666666667,,76.54166666666667
207,2015-03-22,164.4625,,164.4625
207,2015-03-23,234.15,,234.15
207,2015-03-24,257.7583333333333,,257.7583333333333
207,2015-03-25,112.2,,112.2
207,2015-03-26,24.27916666666667,,24.27916666666667
207,2015-03-27,73.64166666666667,,73.64166666666667
207,2015-03-28,133.98333333333332,,133.98333333333332
207,2015-03-29,274.85833333333335,,274.85833333333335
207,2015-03-30,99.05416666666667,,99.05416666666667
207,2015-03-31,200.58333333333334,,200.58333333333334
207,2015-04-01,280.8625,,280.8625
207,2015-04-02,187.64166666666665,,187.64166666666665
207,2015-04-03,202.77083333333334,,202.77083333333334
207,2015-04-04,228.23749999999998,,228.23749999999998
207,2015-04-05,72.1125,,72.1125
207,2015-04-06,201.76666666666665,,201.76666666666665
207,2015-04-07,130.5875,,130.5875
207,2015-04-08,26.1375,,26.1375
207,2015-04-09,118.17916666666667,,118.17916666666667
207,2015-04-10,100.12916666666666,,100.12916666666666
207,2015-04-11,155.11249999999998,,155.11249999999998
207,2015-04-12,275.9916666666667,,275.9916666666667
207,2015-04-13,211.92916666666667,,211.92916666666667
207,2015-04-14,239.59583333333333,,239.59583333333333
207,2015-04-15,282.9875,,282.9875
207,2015-04-16,227.90833333333333,,227.90833333333333
207,2015-04-17,140.07916666666668,,140.07916666666668
207,2015-04-18,277.27500000000003,,277.27500000000003
207,2015-04-19,275.02500000000003,,275.02500000000003
207,2015-04-20,139.22916666666666,,139.22916666666666
207,2015-04-21,171.1625,,171.1625
207,2015-04-22,113.50416666666666,,113.50416666666666
207,2015-04-23,78.06666666666666,,78.06666666666666
207,2015-04-24,112.77916666666665,,112.77916666666665
207,2015-04-25,291.7583333333333,,291.7583333333333
207,2015-04-26,181.69583333333333,,181.69583333333333
207,2015-04-27,166.2875,,166.2875
207,2015-04-28,275.8041666666667,,275.8041666666667
207,2015-04-29,280.06666666666666,,280.06666666666666
207,2015-04-30,273.625,,273.625
207,2015-05-01,273.3875,,273.3875
207,2015-05-02,280.0125,,280.0125
207,2015-05-03,262.71250000000003,,262.71250000000003
207,2015-05-04,179.8083333333333,,179.8083333333333
207,2015-05-05,184.70000000000002,,184.70000000000002
207,2015-05-06,283.90416666666664,,283.90416666666664
207,2015-05-07,276.84583333333336,,276.84583333333336
207,2015-05-08,261.21250000000003,,261.21250000000003
207,2015-05-09,236.1833333333333,,236.1833333333333
207,2015-05-10,195.75,,195.75
207,2015-05-11,217.48749999999998,,217.48749999999998
207,2015-05-12,206.97083333333333,,206.97083333333333
207,2015-05-13,164.76250000000002,,164.76250000000002
207,2015-05-14,289.9916666666667,,289.9916666666667
207,2015-05-15,150.15833333333333,,150.15833333333333
207,2015-05-16,152.225,,152.225
207,2015-05-17,282.2708333333333,,282.2708333333333
207,2015-05-18,203.27083333333334,,203.27083333333334
207,2015-05-19,188.0875,,188.0875
207,2015-05-20,268.46250000000003,,268.46250000000003
207,2015-05-21,267.04583333333335,,267.04583333333335
207,2015-05-22,262.7291666666667,,262.7291666666667
207,2015-05-23,292.925,,292.925
207,2015-05-24,241.04999999999998,,241.04999999999998
207,2015-05-25,171.2541666666667,,171.2541666666667
207,2015-05-26,205.4375,,205.4375
207,2015-05-27,203.75833333333333,,203.75833333333333
207,2015-05-28,243.4,,243.4
207,2015-05-29,254.02916666666667,,254.02916666666667
207,2015-05-30,198.11249999999998,,198.11249999999998
207,2015-05-31,50.2875,,50.2875
207,2015-06-01,77.14166666666667,,77.14166666666667
207,2015-06-02,182.89166666666665,,182.89166666666665
207,2015-06-03,280.7625,,280.7625
207,2015-06-04,143.93333333333334,,143.93333333333334
207,2015-06-05,169.875,,169.875
207,2015-06-06,292.1875,,292.1875
207,2015-06-07,275.4166666666667,,275.4166666666667
207,2015-06-08,98.62083333333334,,98.62083333333334
207,2015-06-09,91.15416666666665,,91.15416666666665
207,2015-06-10,196.3125,,196.3125
207,2015-06-11,266.3625,,266.3625
207,2015-06-12,136.71666666666667,,136.71666666666667
207,2015-06-13,259.2,,259.2
207,2015-06-14,157.87916666666666,,157.87916666666666
207,2015-06-15,161.7125,,161.7125
207,2015-06-16,212.60416666666666,,212.60416666666666
207,2015-06-17,260.8208333333333,,260.8208333333333
207,2015-06-18,231.47083333333333,,231.47083333333333
207,2015-06-19,231.75,,231.75
207,2015-06-20,215.025,,215.025
207,2015-06-21,173.13750000000002,,173.13750000000002
207,2015-06-22,252.95833333333334,,252.95833333333334
207,2015-06-23,232.20000000000002,,232.20000000000002
207,2015-06-24,264.59583333333336,,264.59583333333336
207,2015-06-25,226.11666666666667,,226.11666666666667
207,2015-06-26,287.3541666666667,,287.3541666666667
207,2015-06-27,48.32916666666667,,48.32916666666667
207,2015-06-28,76.74166666666666,,76.74166666666666
207,2015-06-29,174.94583333333333,,174.94583333333333
207,2015-06-30,124.59583333333335,,124.59583333333335
207,2015-07-01,173.2458333333333,,173.2458333333333
207,2015-07-02,215.07916666666665,,215.07916666666665
207,2015-07-03,269.9875,,269.9875
207,2015-07-04,228.15833333333333,,228.15833333333333
207,2015-07-05,263.34999999999997,,263.34999999999997
207,2015-07-06,232.9416666666667,,232.9416666666667
207,2015-07-07,221.60833333333335,,221.60833333333335
207,2015-07-08,239.6916666666667,,239.6916666666667
207,2015-07-09,62.666666666666664,,62.666666666666664
207,2015-07-10,272.9375,,272.9375
207,2015-07-11,248.875,,248.875
207,2015-07-12,236.36666666666667,,236.36666666666667
207,2015-07-13,241.72083333333333,,241.72083333333333
207,2015-07-14,121.8875,,121.8875
207,2015-07-15,214.26250000000002,,214.26250000000002
207,2015-07-16,282.90000000000003,,282.90000000000003
207,2015-07-17,115.07916666666667,,115.07916666666667
207,2015-07-18,230.76250000000002,,230.76250000000002
207,2015-07-19,207.89583333333334,,207.89583333333334
207,2015-07-20,232.92916666666667,,232.92916666666667
207,2015-07-21,215.04166666666666,,215.04166666666666
207,2015-07-22,256.99583333333334,,256.99583333333334
207,2015-07-23,254.89583333333334,,254.89583333333334
207,2015-07-24,267.2,,267.2
207,2015-07-25,159.57083333333333,,159.57083333333333
207,2015-07-26,252.0625,,252.0625
207,2015-07-27,271.3833333333333,,271.3833333333333
207,2015-07-28,268.03333333333336,,268.03333333333336
207,2015-07-29,243.04999999999998,,243.04999999999998
207,2015-07-30,222.40833333333333,,222.40833333333333
207,2015-07-31,221.35,,221.35
207,2015-08-01,248.975,,248.975
207,2015-08-02,246.5041666666667,,246.5041666666667
207,2015-08-03,130.37916666666666,,130.37916666666666
207,2015-08-04,144.37083333333334,,144.37083333333334
207,2015-08-05,249.3125,,249.3125
207,2015-08-06,239.15,,239.15
207,2015-08-07,232.20833333333334,,232.20833333333334
207,2015-08-08,189.71666666666667,,189.71666666666667
207,2015-08-09,273.71666666666664,,273.71666666666664
207,2015-08-10,139.54166666666666,,139.54166666666666
207,2015-08-11,178.6833333333333,,178.6833333333333
207,2015-08-12,191.17499999999998,,191.17499999999998
207,2015-08-13,258.14166666666665,,258.14166666666665
207,2015-08-14,151.70000000000002,,151.70000000000002
207,2015-08-15,188.15,,188.15
207,2015-08-16,240.90833333333333,,240.90833333333333
207,2015-08-17,238.35833333333335,,238.35833333333335
207,2015-08-18,173.96666666666667,,173.96666666666667
207,2015-08-19,204.26666666666665,,204.26666666666665
207,2015-08-20,136.025,,136.025
207,2015-08-21,133.11666666666667,,133.11666666666667
207,2015-08-22,258.325,,258.325
207,2015-08-23,245.92499999999998,,245.92499999999998
207,2015-08-24,201.88333333333333,,201.88333333333333
207,2015-08-25,136.80833333333334,,136.80833333333334
207,2015-08-26,144.70833333333334,,144.70833333333334
207,2015-08-27,111.01666666666667,,111.01666666666667
207,2015-08-28,218.41666666666666,,218.41666666666666
207,2015-08-29,170.8083333333333,,170.8083333333333
207,2015-08-30,169.30833333333334,,169.30833333333334
207,2015-08-31,173.39166666666665,,173.39166666666665
207,2015-09-01,184.225,,184.225
207,2015-09-02,189.3166666666667,,189.3166666666667
207,2015-09-03,223.5666666666667,,223.5666666666667
207,2015-09-04,242.0583333333333,,242.0583333333333
207,2015-09-05,199.86666666666667,,199.86666666666667
207,2015-09-06,192.0,,192.0
207,2015-09-07,237.79999999999998,,237.79999999999998
207,2015-09-08,175.88333333333333,,175.88333333333333
207,2015-09-09,132.82500000000002,,132.82500000000002
207,2015-09-10,166.88333333333333,,166.88333333333333
207,2015-09-11,234.85833333333335,,234.85833333333335
207,2015-09-12,30.641666666666666,,30.641666666666666
207,2015-09-13,55.63333333333333,,55.63333333333333
207,2015-09-14,231.9416666666667,,231.9416666666667
207,2015-09-15,240.60833333333335,,240.60833333333335
207,2015-09-16,236.95833333333334,,236.95833333333334
207,2015-09-17,231.59166666666667,,231.59166666666667
207,2015-09-18,241.78333333333333,,241.78333333333333
207,2015-09-19,89.76666666666667,,89.76666666666667
207,2015-09-20,245.98333333333335,,245.98333333333335
207,2015-09-21,210.20000000000002,,210.20000000000002
207,2015-09-22,256.03333333333336,,256.03333333333336
207,2015-09-23,263.65000000000003,,263.65000000000003
207,2015-09-24,246.525,,246.525
207,2015-09-25,197.51666666666665,,197.51666666666665
207,2015-09-26,217.025,,217.025
207,2015-09-27,223.73333333333335,,223.73333333333335
207,2015-09-28,68.27499999999999,,68.27499999999999
207,2015-09-29,39.65833333333333,,39.65833333333333
207,2015-09-30,22.166666666666668,,22.166666666666668
207,2015-10-01,166.95833333333334,,166.95833333333334
207,2015-10-02,118.59166666666665,,118.59166666666665
207,2015-10-03,67.05833333333334,,67.05833333333334
207,2015-10-04,239.29166666666666,,239.29166666666666
207,2015-10-05,181.275,,181.275
207,2015-10-06,42.93333333333334,,42.93333333333334
207,2015-10-07,131.44166666666666,,131.44166666666666
207,2015-10-08,245.75,,245.75
207,2015-10-09,41.458333333333336,,41.458333333333336
207,2015-10-10,229.04166666666666,,229.04166666666666
207,2015-10-11,241.3166666666667,,241.3166666666667
207,2015-10-12,238.09166666666667,,238.09166666666667
207,2015-10-13,128.00833333333333,,128.00833333333333
207,2015-10-14,93.73333333333333,,93.73333333333333
207,2015-10-15,237.92499999999998,,237.92499999999998
207,2015-10-16,124.05833333333334,,124.05833333333334
207,2015-10-17,174.35833333333335,,174.35833333333335
207,2015-10-18,105.90833333333335,,105.90833333333335
207,2015-10-19,232.53333333333333,,232.53333333333333
207,2015-10-20,98.575,,98.575
207,2015-10-21,55.675000000000004,,55.675000000000004
207,2015-10-22,68.63333333333334,,68.63333333333334
207,2015-10-23,210.35,,210.35
207,2015-10-24,29.358333333333334,,29.358333333333334
207,2015-10-25,107.95833333333333,,107.95833333333333
207,2015-10-26,233.78333333333333,,233.78333333333333
207,2015-10-27,154.59166666666667,,154.59166666666667
207,2015-10-28,24.25,,24.25
207,2015-10-29,55.050000000000004,,55.050000000000004
207,2015-10-30,155.21666666666667,,155.21666666666667
207,2015-10-31,109.33333333333333,,109.33333333333333
207,2015-11-01,109.59166666666665,,109.59166666666665
207,2015-11-02,202.74166666666667,,202.74166666666667
207,2015-11-03,203.78333333333333,,203.78333333333333
207,2015-11-04,204.63333333333333,,204.63333333333333
207,2015-11-05,82.28333333333333,,82.28333333333333
207,2015-11-06,57.69166666666666,,57.69166666666666
207,2015-11-07,56.34166666666667,,56.34166666666667
207,2015-11-08,115.10000000000001,,115.10000000000001
207,2015-11-09,206.75,,206.75
207,2015-11-10,27.0,,27.0
207,2015-11-11,22.150000000000002,,22.150000000000002
207,2015-11-12,57.699999999999996,,57.699999999999996
207,2015-11-13,48.69166666666666,,48.69166666666666
207,2015-11-14,58.916666666666664,,58.916666666666664
207,2015-11-15,181.98333333333335,,181.98333333333335
207,2015-11-16,167.60833333333332,,167.60833333333332
207,2015-11-17,181.475,,181.475
207,2015-11-18,68.925,,68.925
207,2015-11-19,62.083333333333336,,62.083333333333336
207,2015-11-20,63.76666666666667,,63.76666666666667
207,2015-11-21,39.68333333333333,,39.68333333333333
207,2015-11-22,148.65833333333333,,148.65833333333333
207,2015-11-23,75.98333333333333,,75.98333333333333
207,2015-11-24,59.30833333333334,,59.30833333333334
207,2015-11-25,163.16666666666666,,163.16666666666666
207,2015-11-26,74.50833333333334,,74.50833333333334
207,2015-11-27,21.291666666666668,,21.291666666666668
207,2015-11-28,14.708333333333334,,14.708333333333334
207,2015-11-29,48.18333333333334,,48.18333333333334
207,2015-11-30,164.525,,164.525
207,2015-12-01,13.766666666666666,,13.766666666666666
207,2015-12-02,7.383333333333333,,7.383333333333333
207,2015-12-03,33.19166666666667,,33.19166666666667
207,2015-12-04,21.46666666666667,,21.46666666666667
207,2015-12-05,43.05833333333334,,43.05833333333334
207,2015-12-06,93.575,,93.575
207,2015-12-07,20.658333333333335,,20.658333333333335
207,2015-12-08,107.34166666666665,,107.34166666666665
207,2015-12-09,136.05833333333334,,136.05833333333334
207,2015-12-10,88.65833333333335,,88.65833333333335
207,2015-12-11,134.81666666666666,,134.81666666666666
207,2015-12-12,28.45,,28.45
207,2015-12-13,20.658333333333335,,20.658333333333335
207,2015-12-14,63.26666666666667,,63.26666666666667
207,2015-12-15,12.166666666666666,,12.166666666666666
207,2015-12-16,33.61666666666667,,33.61666666666667
207,2015-12-17,3.5833333333333335,,3.5833333333333335
207,2015-12-18,49.15833333333333,,49.15833333333333
207,2015-12-19,70.35000000000001,,70.35000000000001
207,2015-12-20,115.66666666666667,,115.66666666666667
207,2015-12-21,14.758333333333333,,14.758333333333333
207,2015-12-22,28.816666666666666,,28.816666666666666
207,2015-12-23,33.733333333333334,,33.733333333333334
207,2015-12-24,128.525,,128.525
207,2015-12-25,26.0,,26.0
207,2015-12-26,38.24166666666667,,38.24166666666667
207,2015-12-27,6.141666666666667,,6.141666666666667
207,2015-12-28,22.016666666666666,,22.016666666666666
207,2015-12-29,21.391666666666666,,21.391666666666666
207,2015-12-30,54.59166666666667,,54.59166666666667
207,2015-12-31,19.566666666666666,,19.566666666666666
207,2016-01-01,32.074999999999996,,32.074999999999996
207,2016-01-02,5.291666666666667,,5.291666666666667
207,2016-01-03,22.733333333333334,,22.733333333333334
207,2016-01-04,1.1166666666666667,,1.1166666666666667
207,2016-01-05,83.78333333333333,,83.78333333333333
207,2016-01-06,159.875,,159.875
207,2016-01-07,126.29166666666667,,126.29166666666667
207,2016-01-08,51.28333333333333,,51.28333333333333
207,2016-01-09,27.28333333333333,,27.28333333333333
207,2016-01-10,17.191666666666666,,17.191666666666666
207,2016-01-11,139.35,,139.35
207,2016-01-12,59.86666666666667,,59.86666666666667
207,2016-01-13,159.44166666666666,,159.44166666666666
207,2016-01-14,41.49166666666667,,41.49166666666667
207,2016-01-15,55.23333333333333,,55.23333333333333
207,2016-01-16,22.541666666666668,,22.541666666666668
207,2016-01-17,0.39999999999999997,,0.39999999999999997
207,2016-01-18,91.43333333333334,,91.43333333333334
207,2016-01-19,1.7833333333333332,,1.7833333333333332
207,2016-01-20,18.633333333333333,,18.633333333333333
207,2016-01-21,0.19166666666666665,,0.19166666666666665
207,2016-01-22,0.9833333333333334,,0.9833333333333334
207,2016-01-23,-0.05833333333333333,,-0.05833333333333333
207,2016-01-24,1.2416666666666667,,1.2416666666666667
207,2016-01-25,5.991666666666667,,5.991666666666667
207,2016-01-26,49.958333333333336,,49.958333333333336
207,2016-01-27,45.949999999999996,,45.949999999999996
207,2016-01-28,70.41666666666667,,70.41666666666667
207,2016-01-29,43.25833333333333,,43.25833333333333
207,2016-01-30,88.25833333333333,,88.25833333333333
207,2016-01-31,58.75,,58.75
207,2016-02-01,106.2,,106.2
207,2016-02-02,128.13333333333333,,128.13333333333333
207,2016-02-03,63.28333333333333,,63.28333333333333
207,2016-02-04,38.40833333333333,,38.40833333333333
207,2016-02-05,85.625,,85.625
207,2016-02-06,90.55,,90.55
207,2016-02-07,203.875,,203.875
207,2016-02-08,64.45833333333333,,64.45833333333333
207,2016-02-09,74.675,,74.675
207,2016-02-10,53.25,,53.25
207,2016-02-11,75.40833333333333,,75.40833333333333
207,2016-02-12,93.65833333333335,,93.65833333333335
207,2016-02-13,70.10000000000001,,70.10000000000001
207,2016-02-14,10.966666666666667,,10.966666666666667
207,2016-02-15,2.341666666666667,,2.341666666666667
207,2016-02-16,-0.17500000000000002,,-0.17500000000000002
207,2016-02-17,3.533333333333333,,3.533333333333333
207,2016-02-18,43.083333333333336,,43.083333333333336
207,2016-02-19,21.675,,21.675
207,2016-02-20,171.63333333333333,,171.63333333333333
207,2016-02-21,74.59166666666667,,74.59166666666667
207,2016-02-22,165.18333333333334,,165.18333333333334
207,2016-02-23,185.09166666666667,,185.09166666666667
207,2016-02-24,14.258333333333333,,14.258333333333333
207,2016-02-25,43.86666666666667,,43.86666666666667
207,2016-02-26,132.08333333333334,,132.08333333333334
207,2016-02-27,125.96666666666665,,125.96666666666665
207,2016-02-28,226.3166666666667,,226.3166666666667
207,2016-02-29,115.23333333333333,,115.23333333333333
207,2016-03-01,120.95,,120.95
207,2016-03-02,100.925,,100.925